FW4516 Fort Salonga NY US current weather conditions

sailwx.info

Wind from 232 at 1 knots gusting 3

Air temperature 10.6° C
Dewpoint 10.1° C

Last reported at 2019-Dec-09 23:01 UTC.
Time now 2019-Dec-09 23:20 UTC

Location: N 40°54' W 073°18'.
View on Google Maps.

See reports from other nearby stations

  
Tides and Currents Weather Stations Pressure Air Temp Water Temp Dewpoint Dewpoint Depression Visibility Wind Speed Wind Dir Waves Ship Positions
date/time (UTC)wind fromknots sea level pressurealtimeterstation pressurevisibilityair tempwater tempwave heightnotes
2019-Dec-09 23:01 232 1 gusting 3 10.6
2019-Dec-09 22:46 246 0 gusting 1 10.6
2019-Dec-09 22:31 245 0 gusting 3 10.6
2019-Dec-09 22:16 232 1 gusting 3 10.6
2019-Dec-09 22:01 218 0 gusting 4 10.6
2019-Dec-09 21:46 225 0 gusting 5 11.1
2019-Dec-09 21:30 229 0 gusting 2 11.1
2019-Dec-09 21:16 246 0 gusting 2 11.1
2019-Dec-09 21:00 220 11.1
2019-Dec-09 20:46 217 0 gusting 2 11.1
2019-Dec-09 20:31 237 0 gusting 1 11.7
2019-Dec-09 20:15 242 0 gusting 2 11.7
2019-Dec-09 20:00 265 0 gusting 4 11.7
2019-Dec-09 19:46 227 1 gusting 3 11.7
2019-Dec-09 19:30 250 0 gusting 4 12.2
2019-Dec-09 19:15 186 1 gusting 4 12.2
2019-Dec-09 19:00 248 0 gusting 6 12.2
2019-Dec-09 18:45 248 1 gusting 4 12.8
2019-Dec-09 18:31 232 0 gusting 3 12.8
2019-Dec-09 18:16 238 2 gusting 8 12.8
2019-Dec-09 18:00 245 0 gusting 6 12.8
2019-Dec-09 17:46 208 1 gusting 5 12.8
2019-Dec-09 17:30 245 1 gusting 3 12.8
2019-Dec-09 17:15 246 2 gusting 6 12.2
2019-Dec-09 17:00 236 2 gusting 5 12.2
2019-Dec-09 16:45 252 1 gusting 6 12.2
2019-Dec-09 16:30 213 2 gusting 7 12.2
2019-Dec-09 16:15 236 3 gusting 8 12.8
2019-Dec-09 16:00 250 3 gusting 8 12.8
2019-Dec-09 15:45 261 4 gusting 10 12.8
2019-Dec-09 15:30 224 6 gusting 12 12.8
2019-Dec-09 15:16 240 4 gusting 12 12.2
2019-Dec-09 15:02 221 3 gusting 12 12.2
2019-Dec-09 14:46 191 3 gusting 6 12.2
2019-Dec-09 14:32 223 1 gusting 6 11.7
2019-Dec-09 14:16 215 1 gusting 5 11.1
2019-Dec-09 14:02 211 11.1
2019-Dec-09 13:46 242 2 gusting 6 11.1
2019-Dec-09 13:32 261 1 gusting 4 9.4
2019-Dec-09 13:15 199 6.1
2019-Dec-09 13:01 088 5.6
2019-Dec-09 12:45 088 5.0
2019-Dec-09 12:31 088 5.0
2019-Dec-09 12:15 088 5.0
2019-Dec-09 12:00 088 5.0
2019-Dec-09 11:45 088 5.0
2019-Dec-09 11:30 088 5.0
2019-Dec-09 11:16 088 5.0
2019-Dec-09 11:00 088 5.0
2019-Dec-09 10:45 088 4.4
2019-Dec-09 10:30 088 4.4
2019-Dec-09 10:15 088 4.4
2019-Dec-09 10:00 088 4.4
2019-Dec-09 09:45 088 4.4
2019-Dec-09 09:17 088 3.9
2019-Dec-09 09:03 088 3.9
2019-Dec-09 08:47 319 3.9
2019-Dec-09 08:31 308 0 gusting 2 3.9
2019-Dec-09 08:17 235 3.9
2019-Dec-09 08:01 235 3.9
2019-Dec-09 07:46 235 3.9
2019-Dec-09 07:31 235 3.9
2019-Dec-09 07:15 235 3.9
2019-Dec-09 07:01 235 3.9
2019-Dec-09 06:45 235 3.9
2019-Dec-09 06:31 235 3.9
2019-Dec-09 06:15 235 4.4
2019-Dec-09 06:00 235 4.4
2019-Dec-09 05:45 235 5.0
2019-Dec-09 05:30 235 5.0
2019-Dec-09 05:15 235 5.0
2019-Dec-09 05:00 235 5.0
2019-Dec-09 04:45 235 5.0
2019-Dec-09 04:30 235 5.0
2019-Dec-09 04:15 234 5.0
2019-Dec-09 04:00 214 0 gusting 1 5.0
2019-Dec-09 03:45 253 0 gusting 2 5.0
2019-Dec-09 03:30 221 0 gusting 2 4.4
2019-Dec-09 03:15 241 0 gusting 1 4.4
2019-Dec-09 03:00 249 3.9
2019-Dec-09 02:46 249 3.9
2019-Dec-09 02:31 249 3.3
2019-Dec-09 02:17 249 3.3
2019-Dec-09 02:01 249 3.3
2019-Dec-09 01:47 249 3.3
2019-Dec-09 01:32 249 2.8
2019-Dec-09 01:16 249 2.8
2019-Dec-09 01:01 249 2.8
2019-Dec-09 00:46 249 0 gusting 1 1.7
2019-Dec-09 00:31 249 1.1
2019-Dec-09 00:16 249 1.1
2019-Dec-09 00:01 249 1.1
2019-Dec-08 23:46 249 1.7
2019-Dec-08 23:31 249 1.7
2019-Dec-08 23:16 249 1.7
2019-Dec-08 23:01 249 2.2
2019-Dec-08 22:46 226 2.2
2019-Dec-08 22:31 226 2.2
2019-Dec-08 22:16 225 2.2
2019-Dec-08 22:00 214 2.2
2019-Dec-08 21:45 192 0 gusting 2 2.2
2019-Dec-08 21:30 217 0 gusting 2 2.2
2019-Dec-08 21:16 229 2.2
2019-Dec-08 21:01 223 1 gusting 3 2.8
2019-Dec-08 20:46 234 0 gusting 3 2.8
2019-Dec-08 20:30 231 1 gusting 3 2.8
2019-Dec-08 20:15 244 1 gusting 6 2.8
2019-Dec-08 20:00 215 0 gusting 4 2.8
2019-Dec-08 19:45 221 0 gusting 3 2.8
2019-Dec-08 19:30 227 1 gusting 4 2.8
2019-Dec-08 19:15 238 1 gusting 5 2.8
2019-Dec-08 19:01 221 0 gusting 4 2.8
2019-Dec-08 18:45 240 1 gusting 5 2.2
2019-Dec-08 18:30 244 0 gusting 3 2.2
2019-Dec-08 18:15 234 2 gusting 6 2.2
2019-Dec-08 18:00 193 2 gusting 5 2.2
2019-Dec-08 17:45 251 0 gusting 3 2.2
2019-Dec-08 17:30 215 1 gusting 6 2.2
2019-Dec-08 17:15 254 0 gusting 2 2.2
2019-Dec-08 17:00 232 2 gusting 5 2.2
2019-Dec-08 16:47 178 1.7
2019-Dec-08 16:31 217 1 gusting 4 1.1
2019-Dec-08 16:16 243 0 gusting 4 1.1
2019-Dec-08 16:02 218 1 gusting 3 1.1
2019-Dec-08 15:46 214 0 gusting 2 0.6
2019-Dec-08 15:31 128 0 gusting 3 0.6
2019-Dec-08 15:16 157 0 gusting 4 -0.0
2019-Dec-08 15:01 113 -0.0
2019-Dec-08 14:46 192 0 gusting 3 -0.6
2019-Dec-08 14:30 157 -1.1
2019-Dec-08 14:15 155 0 gusting 1 -1.7
2019-Dec-08 14:00 102 -2.2
2019-Dec-08 13:46 101 -3.3
2019-Dec-08 13:30 101 -3.9
2019-Dec-08 13:16 101 -4.4
2019-Dec-08 13:01 101 -5.0
2019-Dec-08 12:45 101 -5.6
2019-Dec-08 12:30 101 -5.6
2019-Dec-08 12:15 101 -5.6
2019-Dec-08 12:00 101 -5.6
2019-Dec-08 11:45 101 -6.1
2019-Dec-08 11:30 101 -6.1
2019-Dec-08 11:15 101 -6.1
2019-Dec-08 11:00 101 -6.1
2019-Dec-08 10:45 101 -6.1
2019-Dec-08 10:30 101 -5.6
2019-Dec-08 10:15 101 -5.6
2019-Dec-08 10:00 101 -5.6
2019-Dec-08 09:45 101 -5.6
2019-Dec-08 09:30 101 -5.0
2019-Dec-08 09:15 101 -5.0
2019-Dec-08 09:01 101 -4.4
2019-Dec-08 08:47 101 -4.4
2019-Dec-08 08:31 101 -4.4
2019-Dec-08 08:19 101 -4.4
2019-Dec-08 08:01 101 -4.4
2019-Dec-08 07:47 101 -3.9
2019-Dec-08 07:31 101 -3.3
2019-Dec-08 07:16 101 -3.3
2019-Dec-08 07:01 101 -3.3
2019-Dec-08 06:47 101 -2.8
2019-Dec-08 06:31 101 -2.8
2019-Dec-08 06:16 101 -2.8
2019-Dec-08 06:01 101 -2.8
2019-Dec-08 05:46 101 -2.2
2019-Dec-08 05:30 101 -2.2
2019-Dec-08 05:16 089 -2.2
2019-Dec-08 05:00 089 -2.2
2019-Dec-08 04:45 089 -2.2
2019-Dec-08 04:30 085 -2.2
2019-Dec-08 04:15 085 -1.7
2019-Dec-08 04:00 085 -1.7
2019-Dec-08 03:45 083 -1.7
2019-Dec-08 03:30 113 -1.7
2019-Dec-08 03:15 355 -1.7
2019-Dec-08 03:00 348 -1.7
2019-Dec-08 02:45 348 -1.7
2019-Dec-08 02:30 348 -1.1
2019-Dec-08 02:15 348 -1.1
2019-Dec-08 02:00 320 -0.6
2019-Dec-08 01:45 320 -0.6
2019-Dec-08 01:30 069 -0.0
2019-Dec-08 01:15 085 0 gusting 5 -0.0
2019-Dec-08 01:00 215 0 gusting 5 -0.0
2019-Dec-08 00:47 055 0 gusting 5 -0.0
2019-Dec-08 00:32 333 1 gusting 6 -0.0
2019-Dec-08 00:16 129 0 gusting 5 -0.0
2019-Dec-08 00:02 327 -0.0
2019-Dec-07 23:47 132 0.6
2019-Dec-07 23:32 275 0 gusting 4 0.6
2019-Dec-07 23:16 293 0.6
2019-Dec-07 23:01 088 0.6